Regional Weather Roundup
Issued by NWS

Home | Current Version | Previous Version | Text Only | Print | Product List | Glossary On
Versions: 1 2 3 4 5 6 7 8 9 10 11 12 13 14 15 16 17 18 19 20 21 22 23 24 25 26 27 28 29 30 31 32 33 34 35 36 37 38 39 40 41 42 43 44 45 46 47 48 49 50
000
ASUS43 KLOT 111108
RWRIL

ILLINOIS REGIONAL WEATHER ROUNDUP
NATIONAL WEATHER SERVICE CHICAGO/ROMEOVILLE IL
500 AM CST THU FEB 11 2016

NOTE: "FAIR" INDICATES FEW OR NO CLOUDS BELOW 12,000 FEET WITH NO
SIGNIFICANT WEATHER AND/OR OBSTRUCTIONS TO VISIBILITY.

* THESE STATIONS ARE NOT UNDER NWS QUALITY CONTROL. THEY ALSO MAY NOT
  REPORT WEATHER SUCH AS PRECIPITATION OR FOG.

ILZ001-002-007-009-015-016-024-111200-
NORTHWEST ILLINOIS

CITY           SKY/WX    TMP DP  RH WIND       PRES   REMARKS
MOLINE         CLOUDY    11   2  67 CALM      30.29R
STERLING*      CLEAR     10   0  61 N5        30.25R WCI   2
SAVANNA*       CLEAR      8  -1  64 CALM      30.29R
$$

ILZ003-004-008-010-011-017-018-111200-
NORTH CENTRAL ILLINOIS

CITY           SKY/WX    TMP DP  RH WIND       PRES   REMARKS
ROCKFORD       CLEAR      7  -1  70 N8        30.27R WCI  -6
FREEPORT*      PTCLDY     6  -1  73 N6        30.27R WCI  -5
ROCHELLE*      CLEAR      7   1  76 N8        30.26R WCI  -5
DE KALB*       PTCLDY     7   1  74 N8        30.23R WCI  -5
$$

ILZ005-006-012>014-019>023-111200-
NORTHEAST ILLINOIS

CITY           SKY/WX    TMP DP  RH WIND       PRES   REMARKS
CHICAGO-OHARE  CLEAR      8  -2  63 N12       30.23R WCI  -7
CHICAGO-MIDWAY CLEAR     11  -2  56 NW9       30.24R WCI  -2
AURORA         CLEAR      8   1  73 N8        30.25R WCI  -4
LANSING*       CLEAR     10   0  64 W3        30.23R
JOLIET*        CLEAR     10   3  72 NW3       30.25R
WAUKEGAN       CLEAR      4  -3  73 VRB5      30.23R WCI  -5
DUPAGE AIRPORT CLEAR      6  -3  66 N8        30.23R WCI  -7
KANKAKEE*      PTCLDY    12   2  65 NW5       30.25R WCI   4
WHEELING       CLEAR      7  -3  64 NW7       30.25R WCI  -5
MORRIS*        CLEAR      9   2  75 NW3       30.22F
ROMEOVILLE*    PTCLDY     9   1  69 N8        30.24R WCI  -4
NORTHERLY ISL    N/A     13   2  61 W5          N/A  WCI   5
$$

LMZ740>746-111200-
SOUTHERN LAKE MICHIGAN

STATION/POSITION SKY/WX   TEMP    WIND        PRES    VSBY  WAVE
                          AIR SEA DIR/SP/G                  HT/PER
                          (F)     (DEG/KT/KT) (MB)    (MI)  (FT/S)
HARRISON CRIB              13     310/ 14/ 16   N/A
BURNHAM HARBOR             13     310/  3/  8   N/A
CALUMET HARBOR             12                   N/A
BURNS HARBOR               18     330/ 13/ 20 1022.4R
MICHIGAN CITY              18     320/ 17/ 21   N/A
$$

ILZ025>027-034>036-040-047-049-050-058-095>099-111200-
WEST-CENTRAL ILLINOIS

CITY           SKY/WX    TMP DP  RH WIND       PRES   REMARKS
QUINCY         CLOUDY    17   9  70 NE12      30.25R WCI   4
GALESBURG*     CLOUDY     6   1  82 CALM      30.27R
MACOMB*        CLOUDY    10   5  79 N3        30.29R
JACKSONVILLE*  CLOUDY    21  12  68 N7        30.26R WCI  12
PITTSFIELD*    CLOUDY    20  15  81 N6        30.25R WCI  12
$$

ILZ028>032-037-038-041>044-048-051>054-059>061-111200-
CENTRAL ILLINOIS

CITY           SKY/WX    TMP DP  RH WIND       PRES   REMARKS
PONTIAC        CLEAR     12   5  75 NW3       30.26R
BLOOMINGTON    CLEAR     10   5  80 N6        30.25R WCI   0
DECATUR        CLEAR     12   4  70 N7        30.24R WCI   1
PEORIA         CLEAR     10   3  73 N3        30.28R
LACON*         CLEAR      8   3  82 CALM      30.27R
LINCOLN*       CLEAR     13   7  78 N6        30.26R WCI   3
SPRINGFIELD    CLOUDY    17   7  64 N6        30.26R WCI   9
TAYLORVILLE    CLOUDY    19  10  68 NE10      30.25R WCI   8
$$

ILZ033-039-045-046-055>057-062-063-111200-
EAST-CENTRAL ILLINOIS

CITY           SKY/WX    TMP DP  RH WIND       PRES   REMARKS
CHAMPAIGN      CLEAR     11   4  73 N6        30.24R WCI   1
RANTOUL*       CLEAR     13   6  74 N3        30.25R
MATTOON        CLOUDY    13   6  74 N6        30.22R WCI   4
PARIS*         CLOUDY    13   9  83 CALM      30.24R
$$

ILZ079-100>102-111200-
SOUTHWEST ILLINOIS

CITY           SKY/WX    TMP DP  RH WIND       PRES   REMARKS
ALTON          CLOUDY    21  16  83 NE7       30.25R WCI  12
BELLEVILLE     CLOUDY    22  18  85 NE6       30.23R WCI  14
CAHOKIA*       CLOUDY    23  17  78 NE10      30.24R WCI  12
SPARTA*        CLOUDY    22  19  90 NE8       30.22R WCI  12
$$

ILZ064>066-069>071-074>076-080>082-084>086-088>090-092>094-111200-
SOUTH-CENTRAL ILLINOIS

CITY           SKY/WX    TMP DP  RH WIND       PRES   REMARKS
CARBONDALE     CLOUDY    23  18  81 NE7       30.21R WCI  15
CAIRO*         PTCLDY    24  23  96 N5        30.19R WCI  18
EFFINGHAM*     CLOUDY    20  12  70 N5        30.25R WCI  14
MARION         CLOUDY    25  21  86 NE7       30.22R WCI  17
MT. VERNON     CLOUDY    21  16  79 NE7       30.23R WCI  13
CENTRALIA*     CLOUDY    22  19  88 NE5       30.22R WCI  16
SALEM*         CLOUDY    23  18  83 NE5       30.22R WCI  16
METROPOLIS*    CLOUDY    26  22  87 NE6       30.20R WCI  19
$$

ILZ067-068-072-073-078-083-087-091-111200-
SOUTHEAST ILLINOIS

CITY           SKY/WX    TMP DP  RH WIND       PRES   REMARKS
LAWRENCEVILLE  CLOUDY    20  14  77 N7        30.24R WCI  11
FLORA*         CLOUDY    23  18  80 NE6       30.24R WCI  16
FAIRFIELD*     CLOUDY    22  19  86 N5        30.22R WCI  16
HARRISBURG*    CLOUDY    23  20  88 NE6       30.23R WCI  16
ROBINSON*      CLOUDY    19   9  66 N6        30.25R WCI  10
CARMI*         CLOUDY    22  19  88 NE6       30.22R WCI  15
$$

ABBREVIATIONS USED IN REMARKS
   TC - TEMPERATURE IN CELSIUS
  WCI - WIND CHILL INDEX
   HX - HEAT INDEX
  VSB - VISIBILITY
$$




USA.gov is the U.S. government's official web portal to all federal, state and local government web resources and services.